Location: A�t Lahcen
(32.8243°N, 5.4246°W)
Time: 01:58:33
(UTC+00:00)

Cosmos 44 Rocket - Pass Details

Date: 27 January 2021
Orbit: 637 x 753 km, 65.1° (Epoch: 26 February)

Event Time Altitude Azimuth Distance (km) Brightness Sun altitude
Exits shadow 04:59:25 57° 132° (SE) 873 3.9 -29.5°
Drops below altitude 10° 05:03:34 10° 148° (SSE) 2,243 6.3 -28.6°
Sets 05:05:55 0° 150° (SSE) 3,150 7.1 -28.1°
